Time,TemperatureF,DewpointF,PressureIn,WindDirection,WindDirectionDegrees,WindSpeedMPH,WindSpeedGustMPH,Humidity,HourlyPrecipIn,Conditions,Clouds,dailyrainin,SoftwareType,DateUTC
2013-02-13 00:02:00,39.0,34.0,29.80,East,95,8.0,-999.0,83,-99.99,,,-99.99,,2013-02-13 05:02:00,
2013-02-13 00:11:00,40.0,35.0,29.80,East,86,6.0,-999.0,83,-99.99,,,-99.99,,2013-02-13 05:11:00,
2013-02-13 00:22:00,40.0,35.0,29.80,East,86,6.0,-999.0,83,-99.99,,,-99.99,,2013-02-13 05:22:00,
2013-02-13 00:32:00,40.0,36.0,29.79,ESE,108,6.0,-999.0,85,-99.99,,,-99.99,,2013-02-13 05:32:00,
2013-02-13 00:42:00,40.0,36.0,29.79,ESE,108,6.0,-999.0,85,-99.99,,,-99.99,,2013-02-13 05:42:00,
2013-02-13 00:52:00,41.0,37.0,29.78,East,81,6.0,-999.0,85,-99.99,,,-99.99,,2013-02-13 05:52:00,
2013-02-13 01:02:00,41.0,37.0,29.77,East,92,5.0,-999.0,84,-99.99,,,-99.99,,2013-02-13 06:02:00,
2013-02-13 01:11:00,41.0,37.0,29.76,East,90,5.0,-999.0,86,-99.99,,,-99.99,,2013-02-13 06:11:00,
2013-02-13 01:21:00,41.0,37.0,29.76,East,90,5.0,-999.0,86,-99.99,,,-99.99,,2013-02-13 06:21:00,
2013-02-13 01:32:00,42.0,38.0,29.74,East,91,3.0,-999.0,84,-99.99,,,-99.99,,2013-02-13 06:32:00,
2013-02-13 01:42:00,40.0,37.0,29.74,East,88,5.0,-999.0,88,-99.99,,,-99.99,,2013-02-13 06:42:00,
2013-02-13 01:52:00,40.0,37.0,29.74,East,88,5.0,-999.0,88,-99.99,,,-99.99,,2013-02-13 06:52:00,
2013-02-13 02:02:00,40.0,37.0,29.73,East,86,3.0,-999.0,89,-99.99,,,-99.99,,2013-02-13 07:02:00,
2013-02-13 02:11:00,39.0,37.0,29.73,East,92,6.0,-999.0,92,-99.99,,,-99.99,,2013-02-13 07:11:00,
2013-02-13 02:22:00,39.0,37.0,29.73,East,92,6.0,-999.0,92,-99.99,,,-99.99,,2013-02-13 07:22:00,
2013-02-13 02:32:00,39.0,38.0,29.72,East,94,2.0,-999.0,96,-99.99,,,-99.99,,2013-02-13 07:32:00,
2013-02-13 02:42:00,38.0,37.0,29.72,East,99,6.0,-999.0,95,-99.99,,,-99.99,,2013-02-13 07:42:00,
2013-02-13 02:52:00,38.0,37.0,29.72,East,99,6.0,-999.0,95,-99.99,,,-99.99,,2013-02-13 07:52:00,
2013-02-13 03:01:00,39.0,38.0,29.71,ESE,109,2.0,-999.0,98,-99.99,,,-99.99,,2013-02-13 08:01:00,
2013-02-13 03:11:00,40.0,39.0,29.70,ESE,109,2.0,-999.0,98,-99.99,,,-99.99,,2013-02-13 08:11:00,
2013-02-13 03:21:00,40.0,39.0,29.70,ESE,109,2.0,-999.0,98,-99.99,,,-99.99,,2013-02-13 08:21:00,
2013-02-13 03:32:00,39.0,38.0,29.70,ESE,109,4.0,-999.0,98,-99.99,,,-99.99,,2013-02-13 08:32:00,
2013-02-13 03:43:00,39.0,38.0,29.70,ESE,109,4.0,-999.0,98,-99.99,,,-99.99,,2013-02-13 08:43:00,
2013-02-13 03:52:00,40.0,40.0,29.69,ESE,109,1.0,-999.0,100,-99.99,,,-99.99,,2013-02-13 08:52:00,
2013-02-13 04:01:00,39.0,39.0,29.68,ESE,109,4.0,-999.0,99,-99.99,,,-99.99,,2013-02-13 09:01:00,
2013-02-13 04:11:00,38.0,38.0,29.67,ESE,109,3.0,-999.0,100,-99.99,,,-99.99,,2013-02-13 09:11:00,
2013-02-13 04:21:00,38.0,38.0,29.67,ESE,109,3.0,-999.0,100,-99.99,,,-99.99,,2013-02-13 09:21:00,
2013-02-13 04:31:00,38.0,38.0,29.67,ESE,119,8.0,-999.0,100,-99.99,,,-99.99,,2013-02-13 09:31:00,
2013-02-13 04:42:00,39.0,39.0,29.66,ESE,119,2.0,-999.0,100,-99.99,,,-99.99,,2013-02-13 09:42:00,
2013-02-13 04:51:00,39.0,39.0,29.66,ESE,119,2.0,-999.0,100,-99.99,,,-99.99,,2013-02-13 09:51:00,
2013-02-13 05:01:00,39.0,39.0,29.65,ESE,119,4.0,-999.0,100,-99.99,,,-99.99,,2013-02-13 10:01:00,
2013-02-13 05:11:00,40.0,39.0,29.64,SE,127,8.0,-999.0,98,-99.99,,,-99.99,,2013-02-13 10:11:00,
2013-02-13 05:21:00,40.0,39.0,29.64,SE,127,8.0,-999.0,98,-99.99,,,-99.99,,2013-02-13 10:21:00,
2013-02-13 05:32:00,41.0,40.0,29.63,SE,127,11.0,-999.0,97,-99.99,,,-99.99,,2013-02-13 10:32:00,
2013-02-13 05:42:00,41.0,40.0,29.62,SE,127,4.0,-999.0,98,-99.99,,,-99.99,,2013-02-13 10:42:00,
2013-02-13 05:52:00,41.0,40.0,29.62,SE,127,4.0,-999.0,98,-99.99,,,-99.99,,2013-02-13 10:52:00,
2013-02-13 06:01:00,41.0,40.0,29.62,ESE,122,3.0,-999.0,96,-99.99,,,-99.99,,2013-02-13 11:01:00,
2013-02-13 06:11:00,41.0,40.0,29.62,ESE,122,4.0,-999.0,96,-99.99,,,-99.99,,2013-02-13 11:11:00,
2013-02-13 06:22:00,41.0,40.0,29.62,ESE,122,4.0,-999.0,96,-99.99,,,-99.99,,2013-02-13 11:22:00,
2013-02-13 06:32:00,41.0,40.0,29.62,ESE,122,3.0,-999.0,96,-99.99,,,-99.99,,2013-02-13 11:32:00,
2013-02-13 06:42:00,41.0,40.0,29.61,ESE,122,3.0,-999.0,98,-99.99,,,-99.99,,2013-02-13 11:42:00,
2013-02-13 06:52:00,41.0,40.0,29.61,ESE,122,3.0,-999.0,98,-99.99,,,-99.99,,2013-02-13 11:52:00,
2013-02-13 07:02:00,41.0,40.0,29.62,SE,132,3.0,-999.0,97,-99.99,,,-99.99,,2013-02-13 12:02:00,
2013-02-13 07:11:00,41.0,40.0,29.61,SE,132,3.0,-999.0,97,-99.99,,,-99.99,,2013-02-13 12:11:00,
2013-02-13 07:22:00,41.0,40.0,29.61,SE,132,3.0,-999.0,97,-99.99,,,-99.99,,2013-02-13 12:22:00,
2013-02-13 07:32:00,41.0,40.0,29.62,SW,215,7.0,-999.0,98,-99.99,,,-99.99,,2013-02-13 12:32:00,
2013-02-13 07:42:00,40.0,40.0,29.61,SW,225,7.0,-999.0,100,-99.99,,,-99.99,,2013-02-13 12:42:00,
2013-02-13 07:52:00,40.0,40.0,29.61,SW,225,7.0,-999.0,100,-99.99,,,-99.99,,2013-02-13 12:52:00,
2013-02-13 08:02:00,39.0,39.0,29.61,SW,226,5.0,-999.0,100,-99.99,,,-99.99,,2013-02-13 13:02:00,
2013-02-13 08:11:00,38.0,38.0,29.61,WSW,248,8.0,-999.0,100,-99.99,,,-99.99,,2013-02-13 13:11:00,
2013-02-13 08:21:00,38.0,38.0,29.61,WSW,248,8.0,-999.0,100,-99.99,,,-99.99,,2013-02-13 13:21:00,
2013-02-13 08:32:00,39.0,39.0,29.62,WSW,248,8.0,-999.0,100,-99.99,,,-99.99,,2013-02-13 13:32:00,
2013-02-13 08:42:00,37.0,37.0,29.62,West,265,8.0,-999.0,100,-99.99,,,-99.99,,2013-02-13 13:42:00,
2013-02-13 08:51:00,37.0,37.0,29.62,West,265,8.0,-999.0,100,-99.99,,,-99.99,,2013-02-13 13:51:00,
2013-02-13 09:01:00,37.0,37.0,29.62,West,269,7.0,-999.0,100,-99.99,,,-99.99,,2013-02-13 14:01:00,
2013-02-13 09:11:00,37.0,37.0,29.62,WSW,255,7.0,-999.0,100,-99.99,,,-99.99,,2013-02-13 14:11:00,
2013-02-13 09:21:00,37.0,37.0,29.62,WSW,255,7.0,-999.0,100,-99.99,,,-99.99,,2013-02-13 14:21:00,
2013-02-13 09:32:00,37.0,37.0,29.64,WSW,246,13.0,-999.0,100,-99.99,,,-99.99,,2013-02-13 14:32:00,
2013-02-13 09:42:00,37.0,37.0,29.63,WSW,253,13.0,-999.0,100,-99.99,,,-99.99,,2013-02-13 14:42:00,
2013-02-13 09:52:00,37.0,37.0,29.63,WSW,253,13.0,-999.0,100,-99.99,,,-99.99,,2013-02-13 14:52:00,
2013-02-13 10:02:00,37.0,37.0,29.62,WSW,246,14.0,-999.0,100,-99.99,,,-99.99,,2013-02-13 15:02:00,
2013-02-13 10:11:00,37.0,37.0,29.62,West,261,15.0,-999.0,100,-99.99,,,-99.99,,2013-02-13 15:11:00,
2013-02-13 10:21:00,37.0,37.0,29.62,West,261,15.0,-999.0,100,-99.99,,,-99.99,,2013-02-13 15:21:00,
2013-02-13 10:32:00,37.0,37.0,29.63,WSW,251,14.0,-999.0,100,-99.99,,,-99.99,,2013-02-13 15:32:00,
2013-02-13 10:42:00,37.0,37.0,29.63,WSW,251,14.0,-999.0,100,-99.99,,,-99.99,,2013-02-13 15:42:00,
2013-02-13 10:52:00,37.0,37.0,29.62,WSW,246,14.0,-999.0,100,-99.99,,,-99.99,,2013-02-13 15:52:00,
2013-02-13 11:01:00,37.0,37.0,29.63,WSW,243,14.0,-999.0,100,-99.99,,,-99.99,,2013-02-13 16:01:00,
2013-02-13 11:11:00,38.0,38.0,29.63,WSW,240,15.0,-999.0,100,-99.99,,,-99.99,,2013-02-13 16:11:00,
2013-02-13 11:21:00,38.0,38.0,29.63,WSW,240,15.0,-999.0,100,-99.99,,,-99.99,,2013-02-13 16:21:00,
2013-02-13 11:32:00,38.0,38.0,29.63,SW,229,18.0,-999.0,100,-99.99,,,-99.99,,2013-02-13 16:32:00,
2013-02-13 11:42:00,38.0,38.0,29.63,SW,229,18.0,-999.0,100,-99.99,,,-99.99,,2013-02-13 16:42:00,
2013-02-13 11:52:00,38.0,38.0,29.63,WSW,246,19.0,-999.0,100,-99.99,,,-99.99,,2013-02-13 16:52:00,
2013-02-13 12:01:00,39.0,39.0,29.63,SW,230,19.0,-999.0,100,-99.99,,,-99.99,,2013-02-13 17:01:00,
2013-02-13 12:11:00,39.0,39.0,29.62,WSW,254,23.0,-999.0,100,-99.99,,,-99.99,,2013-02-13 17:11:00,
2013-02-13 12:21:00,39.0,39.0,29.62,WSW,254,23.0,-999.0,100,-99.99,,,-99.99,,2013-02-13 17:21:00,
2013-02-13 12:32:00,39.0,39.0,29.62,SW,236,25.0,-999.0,100,-99.99,,,-99.99,,2013-02-13 17:32:00,
2013-02-13 12:42:00,39.0,39.0,29.62,SW,236,25.0,-999.0,100,-99.99,,,-99.99,,2013-02-13 17:42:00,
2013-02-13 12:52:00,40.0,40.0,29.62,SW,229,25.0,-999.0,100,-99.99,,,-99.99,,2013-02-13 17:52:00,
2013-02-13 13:02:00,40.0,40.0,29.62,WSW,239,25.0,-999.0,100,-99.99,,,-99.99,,2013-02-13 18:02:00,
2013-02-13 13:11:00,39.0,39.0,29.61,WSW,242,27.0,-999.0,100,-99.99,,,-99.99,,2013-02-13 18:11:00,
2013-02-13 13:23:00,39.0,39.0,29.61,WSW,242,27.0,-999.0,100,-99.99,,,-99.99,,2013-02-13 18:23:00,
2013-02-13 13:32:00,39.0,39.0,29.62,WSW,242,24.0,-999.0,100,-99.99,,,-99.99,,2013-02-13 18:32:00,
2013-02-13 13:42:00,39.0,39.0,29.62,WSW,242,24.0,-999.0,100,-99.99,,,-99.99,,2013-02-13 18:42:00,
2013-02-13 13:52:00,39.0,39.0,29.63,WNW,299,19.0,-999.0,100,-99.99,,,-99.99,,2013-02-13 18:52:00,
2013-02-13 14:01:00,38.0,38.0,29.63,WNW,300,17.0,-999.0,100,-99.99,,,-99.99,,2013-02-13 19:01:00,
2013-02-13 14:11:00,38.0,38.0,29.64,West,259,17.0,-999.0,100,-99.99,,,-99.99,,2013-02-13 19:11:00,
2013-02-13 14:21:00,38.0,38.0,29.64,West,259,17.0,-999.0,100,-99.99,,,-99.99,,2013-02-13 19:21:00,
2013-02-13 14:32:00,37.0,37.0,29.65,WNW,294,15.0,-999.0,100,-99.99,,,-99.99,,2013-02-13 19:32:00,
2013-02-13 14:42:00,37.0,37.0,29.65,WNW,294,15.0,-999.0,100,-99.99,,,-99.99,,2013-02-13 19:42:00,
2013-02-13 14:52:00,37.0,37.0,29.66,NW,319,12.0,-999.0,100,-99.99,,,-99.99,,2013-02-13 19:52:00,
2013-02-13 15:02:00,36.0,36.0,29.66,WSW,246,17.0,-999.0,100,-99.99,,,-99.99,,2013-02-13 20:02:00,
2013-02-13 15:11:00,36.0,36.0,29.67,WSW,245,16.0,-999.0,100,-99.99,,,-99.99,,2013-02-13 20:11:00,
2013-02-13 15:21:00,36.0,36.0,29.67,WSW,245,16.0,-999.0,100,-99.99,,,-99.99,,2013-02-13 20:21:00,
2013-02-13 15:32:00,36.0,36.0,29.67,NW,304,14.0,-999.0,100,-99.99,,,-99.99,,2013-02-13 20:32:00,
2013-02-13 15:42:00,34.0,34.0,29.68,WNW,289,13.0,-999.0,100,-99.99,,,-99.99,,2013-02-13 20:42:00,
2013-02-13 15:52:00,34.0,34.0,29.68,WNW,289,13.0,-999.0,100,-99.99,,,-99.99,,2013-02-13 20:52:00,
2013-02-13 16:01:00,33.0,33.0,29.69,WNW,282,17.0,-999.0,100,-99.99,,,-99.99,,2013-02-13 21:01:00,
2013-02-13 16:11:00,33.0,33.0,29.71,WNW,291,17.0,-999.0,100,-99.99,,,-99.99,,2013-02-13 21:11:00,
2013-02-13 16:21:00,33.0,33.0,29.71,WNW,291,17.0,-999.0,100,-99.99,,,-99.99,,2013-02-13 21:21:00,
2013-02-13 16:31:00,33.0,33.0,29.73,NNW,333,13.0,-999.0,100,-99.99,,,-99.99,,2013-02-13 21:31:00,
2013-02-13 16:42:00,33.0,33.0,29.73,NNW,327,9.0,-999.0,100,-99.99,,,-99.99,,2013-02-13 21:42:00,
2013-02-13 16:52:00,33.0,33.0,29.73,NNW,327,9.0,-999.0,100,-99.99,,,-99.99,,2013-02-13 21:52:00,
2013-02-13 17:02:00,32.0,32.0,29.75,NW,322,9.0,-999.0,100,-99.99,,,-99.99,,2013-02-13 22:02:00,
2013-02-13 17:11:00,32.0,32.0,29.76,NNW,330,9.0,-999.0,100,-99.99,,,-99.99,,2013-02-13 22:11:00,
2013-02-13 17:21:00,32.0,32.0,29.76,NNW,330,9.0,-999.0,100,-99.99,,,-99.99,,2013-02-13 22:21:00,
2013-02-13 17:31:00,31.0,31.0,29.77,North,360,7.0,-999.0,100,-99.99,,,-99.99,,2013-02-13 22:31:00,
2013-02-13 17:42:00,31.0,31.0,29.77,North,360,7.0,-999.0,100,-99.99,,,-99.99,,2013-02-13 22:42:00,
2013-02-13 17:51:00,31.0,31.0,29.77,North,360,5.0,-999.0,100,-99.99,,,-99.99,,2013-02-13 22:51:00,
2013-02-13 18:01:00,31.0,31.0,29.78,North,360,1.0,-999.0,100,-99.99,,,-99.99,,2013-02-13 23:01:00,
2013-02-13 18:11:00,31.0,31.0,29.80,North,360,4.0,-999.0,100,-99.99,,,-99.99,,2013-02-13 23:11:00,
2013-02-13 18:21:00,31.0,31.0,29.80,North,360,4.0,-999.0,100,-99.99,,,-99.99,,2013-02-13 23:21:00,
2013-02-13 18:32:00,30.0,30.0,29.80,North,355,4.0,-999.0,100,-99.99,,,-99.99,,2013-02-13 23:32:00,
2013-02-13 18:42:00,30.0,30.0,29.80,North,355,4.0,-999.0,100,-99.99,,,-99.99,,2013-02-13 23:42:00,
2013-02-13 18:52:00,31.0,31.0,29.81,North,355,3.0,-999.0,100,-99.99,,,-99.99,,2013-02-13 23:52:00,
2013-02-13 19:02:00,30.0,30.0,29.82,North,355,5.0,-999.0,100,-99.99,,,-99.99,,2013-02-14 00:02:00,
2013-02-13 19:11:00,30.0,30.0,29.82,North,355,5.0,-999.0,100,-99.99,,,-99.99,,2013-02-14 00:11:00,
2013-02-13 19:22:00,30.0,30.0,29.83,North,360,6.0,-999.0,100,-99.99,,,-99.99,,2013-02-14 00:22:00,
2013-02-13 19:32:00,30.0,30.0,29.83,North,360,3.0,-999.0,100,-99.99,,,-99.99,,2013-02-14 00:32:00,
2013-02-13 19:42:00,30.0,30.0,29.83,North,360,3.0,-999.0,100,-99.99,,,-99.99,,2013-02-14 00:42:00,
2013-02-13 19:51:00,30.0,30.0,29.84,North,360,4.0,-999.0,100,-99.99,,,-99.99,,2013-02-14 00:51:00,
2013-02-13 20:01:00,30.0,30.0,29.84,North,360,4.0,-999.0,100,-99.99,,,-99.99,,2013-02-14 01:01:00,
2013-02-13 20:11:00,30.0,30.0,29.85,North,360,4.0,-999.0,100,-99.99,,,-99.99,,2013-02-14 01:11:00,
2013-02-13 20:21:00,30.0,30.0,29.85,North,360,4.0,-999.0,100,-99.99,,,-99.99,,2013-02-14 01:21:00,
2013-02-13 20:32:00,30.0,30.0,29.85,NW,319,5.0,-999.0,100,-99.99,,,-99.99,,2013-02-14 01:32:00,
2013-02-13 20:41:00,30.0,30.0,29.85,NW,319,5.0,-999.0,100,-99.99,,,-99.99,,2013-02-14 01:41:00,
2013-02-13 20:52:00,30.0,30.0,29.83,NW,319,4.0,-999.0,100,-99.99,,,-99.99,,2013-02-14 01:52:00,
2013-02-13 21:01:00,30.0,30.0,29.83,NW,317,4.0,-999.0,100,-99.99,,,-99.99,,2013-02-14 02:01:00,
2013-02-13 21:11:00,30.0,30.0,29.83,NW,315,6.0,-999.0,100,-99.99,,,-99.99,,2013-02-14 02:11:00,
2013-02-13 21:21:00,30.0,30.0,29.83,NW,315,6.0,-999.0,100,-99.99,,,-99.99,,2013-02-14 02:21:00,
2013-02-13 21:31:00,30.0,30.0,29.84,NW,310,5.0,-999.0,100,-99.99,,,-99.99,,2013-02-14 02:31:00,
2013-02-13 21:41:00,30.0,30.0,29.84,NW,310,5.0,-999.0,100,-99.99,,,-99.99,,2013-02-14 02:41:00,
2013-02-13 21:52:00,30.0,30.0,29.84,NW,310,5.0,-999.0,100,-99.99,,,-99.99,,2013-02-14 02:52:00,
2013-02-13 22:02:00,29.0,29.0,29.85,WNW,288,4.0,-999.0,100,-99.99,,,-99.99,,2013-02-14 03:02:00,
2013-02-13 22:11:00,29.0,29.0,29.85,WNW,288,5.0,-999.0,100,-99.99,,,-99.99,,2013-02-14 03:11:00,
2013-02-13 22:22:00,29.0,29.0,29.85,WNW,288,5.0,-999.0,100,-99.99,,,-99.99,,2013-02-14 03:22:00,
2013-02-13 22:31:00,29.0,29.0,29.85,WNW,288,5.0,-999.0,100,-99.99,,,-99.99,,2013-02-14 03:31:00,
2013-02-13 22:42:00,29.0,29.0,29.86,WNW,288,2.0,-999.0,100,-99.99,,,-99.99,,2013-02-14 03:42:00,
2013-02-13 22:51:00,29.0,29.0,29.86,WNW,288,2.0,-999.0,100,-99.99,,,-99.99,,2013-02-14 03:51:00,
2013-02-13 23:01:00,29.0,29.0,29.86,WNW,288,3.0,-999.0,100,-99.99,,,-99.99,,2013-02-14 04:01:00,
2013-02-13 23:12:00,29.0,29.0,29.87,WNW,288,4.0,-999.0,100,-99.99,,,-99.99,,2013-02-14 04:12:00,
2013-02-13 23:21:00,29.0,29.0,29.87,WNW,288,4.0,-999.0,100,-99.99,,,-99.99,,2013-02-14 04:21:00,
2013-02-13 23:32:00,28.0,28.0,29.88,WNW,288,7.0,-999.0,100,-99.99,,,-99.99,,2013-02-14 04:32:00,
2013-02-13 23:41:00,28.0,28.0,29.88,WNW,288,7.0,-999.0,100,-99.99,,,-99.99,,2013-02-14 04:41:00,
2013-02-13 23:52:00,28.0,28.0,29.88,WNW,290,6.0,-999.0,100,-99.99,,,-99.99,,2013-02-14 04:52:00,